SL-24 R/B, 40047

Orbit data source: Space-Track

SL-24 R/B, 40047 is space debris in SSO originally from a launch on Thu, 19 Jun 2014 UTC launched from the Orenburg, Russia (OREN). Debris objects in space refer to the collection of defunct objects orbiting the Earth. Examples of debris include non-operational satellites, rocket bodies, and fragments generated from explosions, collisions, or faulty payload assembly.

Loading next visibility...
SL-24 R/B details
Identifier
40047, 2014-033AP
Orbit
SSO
Last TLE update12 hours ago
Origin
Flag of CISKosmotras (CIS)
ManufacturerYuzhnoe
MissionSpacecraft
Bus & Motor15A18-BR, Unknown motor
Mass~1,000 kg wet, ~1,000 kg dry
Launch date (UTC)
2014-06-19 (11 years ago)
Launch vehicleUnknown
Launch site
Orenburg, Russia (OREN)
Object type
Payload
Rocket body
Debris
Shape & HBRCyl, 3 m
Radar Cross Section10.603 m², Large (>1 m²)

Expand to show TLE details & history

TLE from 12 hours ago
0 SL-24 R/B
1 40047U 14033AP  24361.11684345  .00000347  00000-0  17023-3 0  9994
2 40047  97.8905 308.2292 0567185 297.7400  56.7324 13.61801289522793
Epoch: 2024-12-26T02:48Z
Definitive object data (Epoch: 2024-12-26T02:48:15.274Z)
Latitude-0.00002°
Longitude171.06471°
Altitude818.969 km
Speed7.55 km/s
True Right ascension20h 32m 55s
True Declination0° 00' 00"
Sunlit
Object was in daylight at TLE epoch
Visualization TLE readout
Latitude-28.55668°
Longitude-12.84292°
Altitude1,000.075 km
Speed7.37 km/s
Apparent Right ascension05h 39m 14s
Apparent Declination-44° 45' 27"
Sunlit
Object is in full shadow
Visualization observer readout
Local Sidereal Time13:49:44
Azimuth243.791° WSW
Elevation-48.196°
Doppler factor1
Orbital elements
Apogee altitude1,446.311 km
Perigee altitude606.369 km
Semi-major axis7,404.477 km
Eccentricity0.0567185
Inclination97.8905°
RAAN308.2292°
Arg. of periapsis297.74°
True anomaly62.37705°
Mean anomaly56.7324°
Eccentric anomaly59.53342°
Mean motion3.40645 °/min
BSTAR0.00017023
Orbital period105.68 mins
Loading maneuver chart data...
Loading historical data...
Loading historical data...
Loading historical data...
Loading historical data...
Loading historical data...
Loading historical data...
Loading historical data...

SL-24 R/B Visibility forecast

Observer location: undefined°, undefined

Span
Click to sort rows by Start time (UTC) header in descending order
Start Az.
Max El. time (UTC)
Max El. Az.
Max El.
End time (UTC)
End Az.
7 mins2024-12-26 18:51:53.618Z82.295° E2024-12-26 18:54:53.618Z54.674° ENE14.992°2024-12-26 18:58:53.618Z21.608° NNE
12 mins2024-12-26 20:32:53.618Z159.809° S2024-12-26 20:37:53.618Z87.849° E44.544°2024-12-26 20:44:53.618Z349.988° N
6 mins2024-12-26 22:20:53.618Z249.328° W2024-12-26 22:23:53.618Z280.104° WNW15.961°2024-12-26 22:26:53.618Z307.091° NW
7 mins2024-12-27 07:41:53.618Z59.854° ENE2024-12-27 07:44:53.618Z83.523° E15.772°2024-12-27 07:48:53.618Z115.181° SE
14 mins2024-12-27 09:23:53.618Z15.488° NNE2024-12-27 09:30:53.618Z141.988° SSE44.461°2024-12-27 09:37:53.618Z189.839° SSW
11 mins2024-12-27 11:08:53.618Z342.688° N2024-12-27 11:13:53.618Z300.601° NW22.713°2024-12-27 11:19:53.618Z251.98° W
|